Location: Unspecified
(42.3650°N, 71.1030°W)
Time: 16:38:51
(UTC+00:00)

Tiros 1 - Pass Details

Date: 29 June 2024
Orbit: 624 x 656 km, 48.4° (Epoch: 13 July)

Event Time Altitude Azimuth Distance (km) Brightness Sun altitude
Rises 08:02:24 0° 295° (WNW) 2,912 10.3 -10.6°
Reaches altitude 10° 08:04:45 10° 290° (WNW) 2,006 9.4 -10.3°
Maximum altitude 08:09:12 50° 216° (SW) 806 7.3 -9.7°
Drops below altitude 10° 08:13:41 10° 141° (SE) 2,015 9.7 -9.1°
Sets 08:16:04 0° 136° (SE) 2,927 10.5 -8.8°
